COSMOS 1275 DEB, 42199

Orbit data source: Space-Track

COSMOS 1275 DEB, 42199 is space debris in LEO originally from a launch on Thu, 04 Jun 1981 UTC launched from the Plesetsk Missile And Space Complex (PKMTR). Debris objects in space refer to the collection of defunct objects orbiting the Earth. Examples of debris include non-operational satellites, rocket bodies, and fragments generated from explosions, collisions, or faulty payload assembly.

Loading next visibility...
Identifier
42199, 1981-053TP
Orbit
LEO
Country
Flag of CISCIS
Related business
Manufacturer
Unknown
Mission
Spacecraft
Bus & Motor
Unknown
Mass
Unknown
Launch date (UTC)
1981-06-04 (45 years ago)
Launch vehicle
Unknown
Launch site
Plesetsk Missile And Space Complex (PKMTR)
Object type
Payload
Rocket body
Debris
Shape & HBR
Unknown shape, 0.1 m
Radar Cross Section
Small (<0.1 m²)

Expand to show TLE details & history
Last TLE update: 1 week ago

TLE from 1 week ago
0 COSMOS 1275 DEB
1 42199U 81053TP  26137.13920899  .00000466  00000-0  34405-3 0  9997
2 42199  82.9486  81.2664 0037120 259.4165 100.2819 13.93124270633258
Epoch: 2026-05-17T03:20Z
TLE epoch observation values (Epoch: 2026-05-17T03:20:27.656Z)
Latitude
-0.00005°
Longitude
156.30505°
Altitude
925.56 km
Speed
7.387 km/s
True Right ascension
05h 25m 03s
True Declination
0° 00' 00"
Sunlit
Object was in daylight at epoch
Visualization orbit readout
Latitude
Unknown
Longitude
Unknown
Altitude
Unknown
Speed
Unknown
Apparent Right ascension
Unknown
Apparent Declination
Unknown
Sunlit
N/A
Visualization observer readout
Local Sidereal Time
06:26:44
Azimuth
Unknown
Elevation
Unknown
Doppler factor
Unknown
Orbital elements
Apogee altitude
941.897 km
Perigee altitude
887.754 km
Semi-major axis
7,292.963 km
Eccentricity
0.00371
Inclination
82.9486°
RAAN
81.2664°
Arg. of periapsis
259.4165°
True anomaly
100.70008°
Mean anomaly
100.2819°
Eccentric anomaly
100.49103°
Mean motion
3.48487 °/min
Orbital period
103.3 mins
BSTAR
0.00034405
Loading maneuver chart data...
Computing Atmospheric mass density...
Loading historical data...
Loading historical data...
Loading historical data...
Loading historical data...
Loading historical data...
Loading historical data...
Loading historical data...

Documentation

Showing up to 5 results
|